STARLINK-35908, 66639

Orbit data source: Space-Track

STARLINK-35908, 66639 is a payload satellite owned by SpaceX/Seattle (US) in LEO that was launched on Sun, 23 Nov 2025 UTC via an FALCON 9 launch vehicle from the Air Force Western Test Range (AFWTR). Payload-class satellites include a variety of spacecraft equipped with specific instruments for various scientific and technological missions. These include communications satellites like Starlink; space stations such as the ISS; scientific satellites like the Hubble; Earth observation satellites from companies like Planet Labs, Umbra, and HawkEye 360; GPS; miniature CubeSats for education and research; and military/defense satellites.

Loading next visibility...
Identifier
66639, 2025-271Y
Orbit
LEO
Country
Flag of USUS
Related business
Manufacturer
SpaceX/Seattle
Mission
Operational Commercial Communications
Bus & Motor
STARLINK V2MO, Unknown motor
Mass
575 kg wet, ~530 kg dry
Launch date (UTC)
2025-11-23 (2 months ago)
Launch vehicle
FALCON 9
Launch site
Air Force Western Test Range (AFWTR)
Object type
Payload
Rocket body
Debris
Shape & HBR
Box + 2 Pan, 17.7 m
Radar Cross Section
36.964 m²

Expand to show TLE details & history
Last TLE update: 8 hours ago

TLE from 8 hours ago
0 STARLINK-35908
1 66639U 25271Y   26037.06434417  .00039153  00000-0  13282-2 0  9993
2 66639  53.1575 286.9048 0001487  87.6276 272.4895 15.30173942 12725
Epoch: 2026-02-06T01:32Z
TLE epoch observation values (Epoch: 2026-02-06T01:32:39.336Z)
Latitude
-0.00001°
Longitude
127.53331°
Altitude
476.148 km
Speed
7.629 km/s
True Right ascension
19h 07m 37s
True Declination
0° 00' 00"
Sunlit
Object was in daylight at epoch
Visualization orbit readout
Latitude
Unknown
Longitude
Unknown
Altitude
Unknown
Speed
Unknown
Apparent Right ascension
Unknown
Apparent Declination
Unknown
Sunlit
N/A
Visualization observer readout
Local Sidereal Time
12:06:52
Azimuth
Unknown
Elevation
Unknown
Doppler factor
Unknown
Orbital elements
Apogee altitude
476.569 km
Perigee altitude
474.531 km
Semi-major axis
6,853.687 km
Eccentricity
0.00015
Inclination
53.1575°
RAAN
286.9048°
Arg. of periapsis
87.6276°
True anomaly
272.47248°
Mean anomaly
272.4895°
Eccentric anomaly
272.48099°
Mean motion
3.82522 °/min
Orbital period
94.11 mins
BSTAR
0.0013282
Loading maneuver chart data...
Computing Atmospheric mass density...
Loading historical data...
Loading historical data...
Loading historical data...
Loading historical data...
Loading historical data...
Loading historical data...
Loading historical data...

Documentation

Showing up to 5 results
|